timestamp,wind_dir_avg,wind_spd_avg,wind_spd_max_dir,wind_spd_gust,battery_voltage,lat,long
2023-11-14 00:04:01+00:00,340.0,3.54,329.0,4.29,12.41,47.59359,-54.27349
2023-11-14 00:14:01+00:00,9.0,2.85,8.0,3.44,12.33,47.59359,-54.27349
2023-11-14 00:24:01+00:00,39.0,3.08,46.0,4.69,12.33,47.59359,-54.27349
2023-11-14 00:34:01+00:00,15.0,2.51,51.0,4.59,12.33,47.59359,-54.27349
2023-11-14 00:44:01+00:00,22.0,2.84,36.0,4.11,12.33,47.59359,-54.27349
2023-11-14 00:54:01+00:00,333.0,1.84,311.0,3.01,12.33,47.59359,-54.27349
2023-11-14 01:04:01+00:00,335.0,3.65,328.0,4.17,12.33,47.59359,-54.27349
2023-11-14 01:14:00+00:00,338.0,2.35,316.0,3.21,12.33,47.59359,-54.27349
2023-11-14 01:24:00+00:00,356.0,2.74,40.0,4.04,12.33,47.59359,-54.27349
2023-11-14 01:34:00+00:00,2.0,3.17,331.0,4.08,12.33,47.59359,-54.27349
2023-11-14 01:44:00+00:00,343.0,3.06,30.0,4.14,12.33,47.59359,-54.27349
2023-11-14 01:54:00+00:00,48.0,3.58,53.0,4.72,12.33,47.59359,-54.27349
2023-11-14 02:04:00+00:00,2.0,3.14,332.0,3.86,12.33,47.59359,-54.27349
2023-11-14 02:14:01+00:00,357.0,3.03,27.0,4.93,12.33,47.59359,-54.27349
2023-11-14 02:24:01+00:00,28.0,3.49,39.0,5.12,12.33,47.59359,-54.27349
2023-11-14 02:34:01+00:00,11.0,3.3,6.0,4.26,12.33,47.59359,-54.27349
2023-11-14 02:44:01+00:00,358.0,2.5,358.0,3.2,12.33,47.59359,-54.27349
2023-11-14 02:54:01+00:00,357.0,2.39,22.0,3.18,12.33,47.59359,-54.27349
2023-11-14 03:04:01+00:00,347.0,3.07,347.0,4.06,12.33,47.59359,-54.27349
2023-11-14 03:14:00+00:00,5.0,3.47,5.0,4.31,12.25,47.59359,-54.27349
2023-11-14 03:24:00+00:00,7.0,3.79,355.0,4.47,12.25,47.59359,-54.27349
2023-11-14 03:34:00+00:00,347.0,4.19,346.0,5.14,12.25,47.59359,-54.27349
2023-11-14 03:44:00+00:00,11.0,4.55,16.0,5.56,12.25,47.59359,-54.27349
2023-11-14 03:54:00+00:00,351.0,3.98,348.0,5.04,12.25,47.59359,-54.27349
2023-11-14 04:04:00+00:00,357.0,3.74,8.0,4.77,12.25,47.59359,-54.27349
2023-11-14 04:14:00+00:00,349.0,3.55,326.0,4.44,12.25,47.59359,-54.27349
2023-11-14 04:24:00+00:00,354.0,4.05,12.0,4.91,12.25,47.59359,-54.27349
2023-11-14 04:34:00+00:00,351.0,3.34,345.0,4.16,12.25,47.59359,-54.27349
2023-11-14 04:44:00+00:00,18.0,3.88,13.0,4.87,12.25,47.59359,-54.27349
2023-11-14 04:54:00+00:00,9.0,3.25,7.0,4.01,12.25,47.59359,-54.27349
2023-11-14 05:04:00+00:00,7.0,2.98,6.0,3.93,12.25,47.59359,-54.27349
2023-11-14 05:14:00+00:00,1.0,2.72,0.0,3.41,12.25,47.59359,-54.27349
2023-11-14 05:24:00+00:00,12.0,2.91,4.0,3.38,12.25,47.59359,-54.27349
2023-11-14 05:34:00+00:00,342.0,2.13,320.0,2.99,12.25,47.59359,-54.27349
2023-11-14 05:44:00+00:00,310.0,1.14,284.0,2.28,12.25,47.59359,-54.27349
2023-11-14 05:54:00+00:00,341.0,1.94,311.0,3.14,12.25,47.59359,-54.27349
2023-11-14 06:04:00+00:00,287.0,1.75,277.0,2.74,12.25,47.59359,-54.27349
2023-11-14 06:14:01+00:00,338.0,1.78,338.0,2.84,12.17,47.59359,-54.27349
2023-11-14 06:24:01+00:00,278.0,3.11,277.0,3.5,12.17,47.59359,-54.27349
2023-11-14 06:34:01+00:00,341.0,2.23,308.0,4.28,12.17,47.59359,-54.27349
2023-11-14 06:44:01+00:00,297.0,1.69,297.0,3.35,12.17,47.59359,-54.27349
2023-11-14 06:54:01+00:00,323.0,2.62,311.0,3.81,12.17,47.59359,-54.27349
2023-11-14 07:04:01+00:00,296.0,0.98,305.0,1.39,12.17,47.59359,-54.27349
2023-11-14 07:14:01+00:00,302.0,0.68,282.0,1.52,12.17,47.59359,-54.27349
2023-11-14 07:24:01+00:00,23.0,2.45,43.0,3.14,12.17,47.59359,-54.27349
2023-11-14 07:34:01+00:00,329.0,1.5,344.0,1.94,12.17,47.59359,-54.27349
2023-11-14 07:44:01+00:00,340.0,1.16,309.0,2.43,12.17,47.59359,-54.27349
2023-11-14 07:54:01+00:00,333.0,1.44,39.0,2.16,12.17,47.59359,-54.27349
2023-11-14 08:04:01+00:00,346.0,1.7,303.0,3.0,12.17,47.59359,-54.27349
2023-11-14 08:14:01+00:00,314.0,2.89,307.0,3.57,12.17,47.59359,-54.27349
2023-11-14 08:24:01+00:00,358.0,2.46,321.0,4.4,12.17,47.59359,-54.27349
2023-11-14 08:34:01+00:00,341.0,2.37,356.0,3.73,12.17,47.59359,-54.27349
2023-11-14 08:44:01+00:00,327.0,3.13,317.0,4.02,12.17,47.59359,-54.27349
2023-11-14 08:54:01+00:00,307.0,3.71,306.0,4.31,12.17,47.59359,-54.27349
2023-11-14 09:04:01+00:00,318.0,4.51,313.0,5.13,12.17,47.59359,-54.27349
2023-11-14 09:14:00+00:00,334.0,3.49,319.0,5.08,12.17,47.59359,-54.27349
2023-11-14 09:24:00+00:00,318.0,4.03,320.0,4.86,12.17,47.59359,-54.27349
2023-11-14 09:34:00+00:00,307.0,4.19,308.0,4.98,12.17,47.59359,-54.27349
2023-11-14 09:44:00+00:00,314.0,4.55,309.0,5.25,12.17,47.59359,-54.27349
2023-11-14 09:54:00+00:00,328.0,3.04,315.0,3.85,12.17,47.59359,-54.27349
2023-11-14 10:04:00+00:00,266.0,3.57,272.0,4.16,12.17,47.59359,-54.27349
2023-11-14 10:14:00+00:00,307.0,4.36,316.0,5.19,12.17,47.59359,-54.27349
2023-11-14 10:24:00+00:00,324.0,3.58,315.0,4.11,12.17,47.59359,-54.27349
2023-11-14 10:34:00+00:00,318.0,3.85,299.0,5.71,12.17,47.59359,-54.27349
2023-11-14 10:44:00+00:00,320.0,3.12,320.0,4.09,12.17,47.59359,-54.27349
2023-11-14 10:54:00+00:00,332.0,4.49,331.0,5.15,12.17,47.59359,-54.27349
2023-11-14 11:04:00+00:00,323.0,4.58,328.0,5.9,12.17,47.59359,-54.27349
2023-11-14 11:14:00+00:00,320.0,4.08,319.0,4.68,12.17,47.59359,-54.27349
2023-11-14 11:24:00+00:00,328.0,4.24,323.0,5.63,12.17,47.59359,-54.27349
2023-11-14 11:34:00+00:00,320.0,3.45,311.0,4.72,12.17,47.59359,-54.27349
2023-11-14 11:44:00+00:00,334.0,2.56,322.0,3.38,12.17,47.59359,-54.27349
2023-11-14 11:54:00+00:00,308.0,3.22,302.0,4.11,12.17,47.59359,-54.27349
2023-11-14 12:04:00+00:00,335.0,3.04,339.0,3.94,12.17,47.59359,-54.27349
2023-11-14 12:14:01+00:00,335.0,2.9,342.0,3.59,13.76,47.59359,-54.27349
2023-11-14 12:24:01+00:00,322.0,3.71,324.0,4.62,13.76,47.59359,-54.27349
2023-11-14 12:34:01+00:00,326.0,3.73,322.0,4.7,13.76,47.59359,-54.27349
2023-11-14 12:44:01+00:00,329.0,3.47,328.0,4.2,13.76,47.59359,-54.27349
2023-11-14 12:54:01+00:00,321.0,3.74,320.0,4.42,13.76,47.59359,-54.27349
2023-11-14 13:04:01+00:00,339.0,3.77,340.0,4.27,13.76,47.59359,-54.27349
2023-11-14 13:14:00+00:00,336.0,3.7,327.0,4.24,13.68,47.59359,-54.27349
2023-11-14 13:24:00+00:00,332.0,2.52,334.0,2.99,13.68,47.59359,-54.27349
2023-11-14 13:34:00+00:00,316.0,2.9,316.0,3.38,13.68,47.59359,-54.27349
2023-11-14 13:44:00+00:00,311.0,2.46,324.0,3.9,13.68,47.59359,-54.27349
2023-11-14 13:54:00+00:00,297.0,2.67,308.0,3.3,13.68,47.59359,-54.27349
2023-11-14 14:04:00+00:00,353.0,0.93,303.0,1.46,13.68,47.59359,-54.27349
2023-11-14 14:14:00+00:00,330.0,3.15,331.0,3.83,13.68,47.59359,-54.27349
2023-11-14 14:24:00+00:00,317.0,4.09,320.0,5.06,13.68,47.59359,-54.27349
2023-11-14 14:34:00+00:00,341.0,3.1,346.0,4.47,13.68,47.59359,-54.27349
2023-11-14 14:44:00+00:00,304.0,2.69,313.0,3.24,13.68,47.59359,-54.27349
2023-11-14 14:54:00+00:00,280.0,3.39,290.0,4.59,13.68,47.59359,-54.27349
2023-11-14 15:04:00+00:00,329.0,5.3,319.0,6.66,13.68,47.59359,-54.27349
2023-11-14 15:14:00+00:00,331.0,3.35,324.0,4.17,13.68,47.59359,-54.27349
2023-11-14 15:24:00+00:00,307.0,4.13,308.0,4.69,13.68,47.59359,-54.27349
2023-11-14 15:34:00+00:00,318.0,3.36,317.0,4.16,13.68,47.59359,-54.27349
2023-11-14 15:44:00+00:00,333.0,2.29,351.0,3.88,13.68,47.59359,-54.27349
2023-11-14 15:54:00+00:00,334.0,3.29,327.0,4.02,13.68,47.59359,-54.27349
2023-11-14 16:04:00+00:00,349.0,5.0,7.0,6.37,13.68,47.59359,-54.27349
2023-11-14 16:14:00+00:00,301.0,4.79,310.0,5.52,13.68,47.59359,-54.27349
2023-11-14 16:24:00+00:00,316.0,3.57,316.0,4.78,13.68,47.59359,-54.27349
2023-11-14 16:34:00+00:00,341.0,5.3,328.0,6.35,13.68,47.59359,-54.27349
2023-11-14 16:44:00+00:00,348.0,3.34,343.0,4.26,13.68,47.59359,-54.27349
2023-11-14 16:54:00+00:00,338.0,3.94,322.0,4.72,13.68,47.59359,-54.27349
2023-11-14 17:04:00+00:00,353.0,5.97,344.0,7.1,13.68,47.59359,-54.27349
2023-11-14 17:14:00+00:00,334.0,4.57,330.0,6.4,13.68,47.59359,-54.27349
2023-11-14 17:24:00+00:00,353.0,3.6,353.0,4.37,13.68,47.59359,-54.27349
2023-11-14 17:34:00+00:00,317.0,4.28,315.0,5.11,13.68,47.59359,-54.27349
2023-11-14 17:44:00+00:00,328.0,5.16,324.0,6.3,13.68,47.59359,-54.27349
2023-11-14 17:54:00+00:00,309.0,4.95,315.0,5.68,13.68,47.59359,-54.27349
2023-11-14 18:04:00+00:00,308.0,4.24,312.0,5.08,13.68,47.59359,-54.27349
2023-11-14 18:14:00+00:00,311.0,4.62,315.0,6.37,13.6,47.59359,-54.27349
2023-11-14 18:24:00+00:00,320.0,2.33,322.0,2.96,13.6,47.59359,-54.27349
2023-11-14 18:34:00+00:00,338.0,5.62,327.0,7.15,13.6,47.59359,-54.27349
2023-11-14 18:44:00+00:00,355.0,6.02,358.0,6.78,13.6,47.59359,-54.27349
2023-11-14 18:54:00+00:00,7.0,5.62,1.0,7.11,13.6,47.59359,-54.27349
2023-11-14 19:04:00+00:00,311.0,3.77,323.0,5.46,13.6,47.59359,-54.27349
2023-11-14 19:14:00+00:00,337.0,3.49,323.0,5.51,13.13,47.59359,-54.27349
2023-11-14 19:24:00+00:00,354.0,5.12,354.0,6.09,13.13,47.59359,-54.27349
2023-11-14 19:34:00+00:00,0.0,3.25,11.0,4.06,13.13,47.59359,-54.27349
2023-11-14 19:44:00+00:00,3.0,2.8,23.0,3.43,13.13,47.59359,-54.27349
2023-11-14 19:54:00+00:00,351.0,4.19,349.0,4.79,13.13,47.59359,-54.27349
2023-11-14 20:04:00+00:00,352.0,3.73,346.0,4.57,13.13,47.59359,-54.27349
2023-11-14 20:14:00+00:00,13.0,3.01,355.0,3.7,12.57,47.59359,-54.27349
2023-11-14 20:24:00+00:00,355.0,5.0,9.0,5.7,12.57,47.59359,-54.27349
2023-11-14 20:34:00+00:00,5.0,5.13,2.0,6.56,12.57,47.59359,-54.27349
2023-11-14 20:44:00+00:00,46.0,4.57,48.0,5.57,12.57,47.59359,-54.27349
2023-11-14 20:54:00+00:00,36.0,5.39,37.0,6.35,12.57,47.59359,-54.27349
2023-11-14 21:04:00+00:00,323.0,3.68,325.0,4.53,12.57,47.59359,-54.27349
2023-11-14 21:14:00+00:00,356.0,5.48,358.0,6.43,12.41,47.59359,-54.27349
2023-11-14 21:24:00+00:00,17.0,4.62,38.0,6.75,12.41,47.59359,-54.27349
2023-11-14 21:34:00+00:00,18.0,2.83,22.0,3.55,12.41,47.59359,-54.27349
2023-11-14 21:44:00+00:00,31.0,5.5,30.0,6.43,12.41,47.59359,-54.27349
2023-11-14 21:54:00+00:00,32.0,3.33,40.0,4.4,12.41,47.59359,-54.27349
2023-11-14 22:04:00+00:00,39.0,5.15,46.0,6.16,12.41,47.59359,-54.27349
2023-11-14 22:14:01+00:00,18.0,4.13,29.0,5.3,12.41,47.59359,-54.27349
2023-11-14 22:24:01+00:00,36.0,5.95,36.0,7.01,12.41,47.59359,-54.27349
2023-11-14 22:34:01+00:00,2.0,5.2,4.0,6.34,12.41,47.59359,-54.27349
2023-11-14 22:44:01+00:00,2.0,4.83,345.0,5.52,12.41,47.59359,-54.27349
2023-11-14 22:54:01+00:00,23.0,3.31,39.0,4.93,12.41,47.59359,-54.27349
2023-11-14 23:04:01+00:00,13.0,2.94,38.0,5.22,12.41,47.59359,-54.27349
2023-11-14 23:14:01+00:00,11.0,6.97,22.0,8.47,12.41,47.59359,-54.27349
2023-11-14 23:24:01+00:00,37.0,5.92,35.0,6.71,12.41,47.59359,-54.27349
2023-11-14 23:34:01+00:00,357.0,5.7,23.0,7.0,12.41,47.59359,-54.27349
2023-11-14 23:44:01+00:00,6.0,4.77,28.0,6.48,12.41,47.59359,-54.27349
2023-11-14 23:54:01+00:00,5.0,6.99,14.0,9.36,12.41,47.59359,-54.27349
